Location: Etzel
(47.1780°N, 8.7676°E)
Time: 03:20:01
(UTC+00:00)

Daily predictions for brighter satellites

Satellite Brightness Start Highest point End
(mag) Time Altitude Azimuth Time Altitude Azimuth Time Altitude Azimuth
CENTAUR R/B 4.0 02:03:00 32° E 02:03:00 32° E 02:07:27 10° NE
Cosmos 1697 Rocket 4.1 02:35:00 32° NNE 02:36:03 34° NE 02:41:11 10° ESE
Cosmos 2344 3.5 02:37:40 80° ENE 02:37:40 80° ENE 02:45:18 10° NE
Lacrosse 4 Rocket 4.2 02:42:01 16° NE 02:42:01 16° NE 02:42:58 10° NE
USA 238 DEB 3.9 02:41:03 62° NE 02:41:03 62° NE 02:46:44 10° NE
USA 238 3.9 02:41:08 63° NE 02:41:08 63° NE 02:46:50 10° NE
NOSS 3-2 (A) 4.0 02:44:26 51° NNE 02:44:26 51° NNE 02:49:20 10° NE
Lacrosse 5 rocket 4.2 02:50:06 14° E 02:50:06 14° E 02:50:48 10° ENE
ATLAS 3B R/B 4.3 02:45:39 15° SSE 02:49:36 26° ESE 02:54:55 10° ENE
Cosmos 1980 Rocket 3.9 02:54:36 13° N 02:58:42 29° NE 03:03:31 10° ESE
USA 234 3.5 02:53:13 10° NE 02:59:22 54° NNW 02:59:22 54° NNW
ADEOS Rocket 3.2 02:56:20 10° SSE 03:01:41 60° ENE 03:07:15 10° N
Cosmos 1269 Rocket 4.3 03:09:19 64° ENE 03:09:19 64° ENE 03:13:58 10° NNE
IDEFIX/ARIANE 42P 4.2 03:16:45 10° N 03:18:52 23° N 03:18:52 23° N
MSX 4.1 03:27:19 10° N 03:32:03 50° NW 03:32:03 50° NW
Cosmos 1300 4.5 03:30:37 10° N 03:34:04 31° ENE 03:37:31 10° SE
ALOS 3.8 03:30:30 10° NNE 03:34:50 36° E 03:39:07 10° SSE
In-Cosmos 22 4.2 03:35:42 57° NW 03:35:42 57° NW 03:40:23 10° N
CZ-4B R/B 3.0 03:32:59 10° SE 03:36:11 36° ENE 03:37:09 30° NE
Cosmos 1833 Rocket 2.9 03:33:51 34° S 03:36:19 71° ESE 03:41:58 10° NNE
Cosmos 2279 Rocket 4.5 03:32:24 10° NNW 03:43:01 18° SSW 03:44:25 10° SSW
Cosmos 1992 Rocket 4.5 03:34:01 12° NNW 03:38:54 60° ENE 03:44:03 10° SE
Cosmos 1626 3.0 03:39:55 40° SE 03:40:42 48° E 03:44:17 10° NNE
NOSS 3-2 (C) 3.5 03:43:22 52° WNW 03:44:10 56° NW 03:50:46 10° NE
CENTAUR R/B 2.7 03:50:12 45° W 03:51:40 55° NW 03:58:49 10° NE
Cosmos 2369 3.6 03:49:30 22° NNW 03:53:20 83° WSW 03:58:59 10° SSE
Cosmos 1656 4.4 03:55:16 34° SW 03:55:16 34° SW 03:59:03 10° S
Meteor 1-24 Rocket 4.4 03:50:36 10° S 03:56:05 58° E 04:01:50 10° NNE
Cosmos 1484 Rocket 3.4 03:53:35 10° NNE 03:57:23 55° E 04:01:07 10° S
CBERS 1 LM4 rocket 4.2 03:53:09 10° NNE 03:58:06 86° WNW 04:02:24 13° SSW
Cosmos 2082 Rocket 2.6 03:53:43 10° S 03:59:14 62° ESE 04:04:47 10° NNE
Cosmos 1461 3.2 03:57:49 35° SSW 03:59:42 75° ESE 04:04:25 10° NE
PSLV R/B 3.8 04:01:38 10° N 04:05:31 47° WNW 04:05:31 47° WNW
SL-16 R/B 3.9 04:01:49 10° NNW 04:06:48 30° NE 04:11:45 10° ESE
CZ-2C R/B 2.5 04:02:36 10° N 04:07:26 51° WNW 04:08:50 38° WSW
USA 290 2.8 04:06:41 30° S 04:08:00 57° ESE 04:11:12 10° NNE
CREW DRAGON DEMO-1 DEB 3.5 04:08:42 47° NNE 04:08:42 47° NNE 04:11:34 10° E
ISS -3.9 04:09:06 84° SW 04:09:12 88° SSE 04:12:34 10° ENE
Cosmos 2251 Rocket 3.8 04:05:09 10° S 04:10:28 71° ESE 04:15:48 10° NNE
SKYMED 2 4.2 04:13:19 10° SSE 04:17:35 58° ENE 04:21:52 10° N
Lacrosse 4 Rocket 2.4 04:18:22 28° NW 04:18:22 28° NW 04:21:34 10° NNE
Cosmos 1697 Rocket 2.9 04:16:50 22° NW 04:20:10 45° WSW 04:25:31 10° S
Meteor 1-31 Rocket 2.9 04:18:12 10° NNE 04:22:10 78° ESE 04:26:06 10° S
COSMOS 2406 3.5 04:21:37 28° WSW 04:24:06 44° NW 04:29:33 10° NNE
[s.n.46727] 2.6 04:25:26 57° SSW 04:25:49 69° SSE 04:28:34 10° ENE
[s.n.46723] 2.7 04:25:27 54° SSW 04:25:54 70° SSE 04:28:42 10° ENE
[s.n.46707] 2.6 04:25:36 56° SSW 04:26:00 69° SSE 04:28:45 10° ENE
[s.n.46708] 2.6 04:25:41 56° SSW 04:26:06 70° SSE 04:28:50 10° ENE
[s.n.46719] 2.6 04:25:47 56° SSW 04:26:11 70° SSE 04:28:56 10° ENE
[s.n.46724] 2.6 04:25:52 56° SSW 04:26:16 70° SSE 04:29:01 10° ENE
[s.n.46687] 2.6 04:25:57 56° SSW 04:26:21 70° SSE 04:29:05 10° ENE
[s.n.46696] 2.6 04:26:02 56° SSW 04:26:27 70° SSE 04:29:12 10° ENE
[s.n.46720] 2.6 04:26:08 56° SSW 04:26:33 70° SSE 04:29:17 10° ENE
[s.n.46676] 2.6 04:26:12 56° SSW 04:26:38 70° SSE 04:29:22 10° ENE
Lacrosse 5 rocket 1.2 04:25:46 41° W 04:26:41 54° NNW 04:30:26 10° NE
[s.n.46721] 2.6 04:26:18 56° SSW 04:26:44 71° SSE 04:29:28 10° ENE
[s.n.46728] 2.6 04:26:23 55° SSW 04:26:49 71° SSE 04:29:33 10° ENE
CZ-4B R/B 3.9 04:22:55 10° NNE 04:26:52 50° E 04:30:59 10° S
[s.n.46690] 2.6 04:26:28 55° SSW 04:26:54 71° SSE 04:29:38 10° ENE
[s.n.46694] 2.6 04:26:32 55° SSW 04:26:58 71° SSE 04:29:43 10° ENE
[s.n.46702] 2.6 04:26:39 55° SSW 04:27:05 71° SSE 04:29:50 10° ENE
[s.n.46679] 2.6 04:26:42 55° SSW 04:27:09 71° SSE 04:29:54 10° ENE
[s.n.46704] 2.6 04:26:44 53° SSW 04:27:13 72° SSE 04:30:01 10° ENE
[s.n.46712] 2.6 04:26:50 55° SSW 04:27:17 72° SSE 04:30:02 10° ENE
[s.n.46711] 2.6 04:26:59 55° SSW 04:27:26 72° SSE 04:30:11 10° ENE
[s.n.46684] 2.6 04:27:01 55° SSW 04:27:28 72° SSE 04:30:13 10° ENE
Meteor 2-5 Rocket 3.7 04:21:56 10° SSW 04:27:36 65° WNW 04:33:26 10° N
[s.n.46706] 2.6 04:27:09 54° SSW 04:27:37 72° SSE 04:30:22 10° ENE
[s.n.46678] 2.6 04:27:07 53° SSW 04:27:38 72° SSE 04:30:26 10° ENE
[s.n.46677] 2.6 04:27:17 54° SSW 04:27:44 72° SSE 04:30:29 10° ENE
[s.n.46671] 2.6 04:27:22 54° SSW 04:27:50 72° SSE 04:30:35 10° ENE
[s.n.46675] 2.6 04:27:27 54° SSW 04:27:55 73° SSE 04:30:41 10° ENE
[s.n.46674] 2.6 04:27:33 54° SSW 04:28:02 73° SSE 04:30:46 10° ENE
[s.n.46698] 2.6 04:27:38 54° SSW 04:28:07 73° SSE 04:30:52 10° ENE
[s.n.46699] 2.6 04:27:39 52° SW 04:28:11 73° SSE 04:30:59 10° ENE
[s.n.46715] 2.6 04:27:48 54° SW 04:28:18 73° SSE 04:31:03 10° ENE
[s.n.46714] 2.6 04:27:53 53° SW 04:28:23 73° SSE 04:31:08 10° ENE
[s.n.46726] 2.6 04:27:59 53° SW 04:28:29 73° SSE 04:31:13 10° ENE
[s.n.46703] 2.6 04:28:04 53° SW 04:28:33 74° SSE 04:31:18 10° ENE
[s.n.46713] 2.6 04:28:09 53° SW 04:28:40 74° SSE 04:31:25 10° ENE
[s.n.46717] 2.6 04:28:14 53° SW 04:28:44 74° SSE 04:31:30 10° ENE
[s.n.46691] 2.6 04:28:16 51° SW 04:28:49 74° SSE 04:31:37 10° ENE
[s.n.46693] 2.6 04:28:25 53° SW 04:28:56 74° SSE 04:31:41 10° ENE
[s.n.46672] 2.6 04:28:30 53° SW 04:29:01 74° SSE 04:31:47 10° ENE
[s.n.46701] 2.6 04:28:35 52° SW 04:29:07 74° SSE 04:31:52 10° ENE
[s.n.46685] 2.6 04:28:41 52° SW 04:29:12 75° SSE 04:31:58 10° ENE
[s.n.46709] 2.6 04:28:46 52° SW 04:29:17 75° SSE 04:32:03 10° ENE
[s.n.46683] 2.6 04:28:50 52° SW 04:29:22 75° SSE 04:32:08 10° ENE
[s.n.46695] 2.6 04:28:55 52° SW 04:29:27 75° SSE 04:32:13 10° ENE
FENGYUN 3A 3.6 04:24:05 10° N 04:29:31 74° WNW 04:34:56 10° SSW
[s.n.46688] 2.6 04:29:02 51° SW 04:29:34 75° SSE 04:32:20 10° ENE
[s.n.46729] 2.6 04:29:06 51° SW 04:29:39 75° SSE 04:32:24 10° ENE
[s.n.46697] 2.6 04:29:09 51° SW 04:29:42 75° SSE 04:32:27 10° ENE
[s.n.46725] 2.5 04:29:14 51° SW 04:29:46 75° SSE 04:32:32 10° ENE
[s.n.46682] 2.5 04:29:19 51° SW 04:29:51 76° SSE 04:32:37 10° ENE
[s.n.46680] 2.5 04:29:25 51° SW 04:29:58 76° SSE 04:32:44 10° ENE
[s.n.46718] 2.5 04:29:30 51° SW 04:30:04 76° SSE 04:32:49 10° ENE
[s.n.46710] 2.5 04:29:35 51° SW 04:30:08 76° SSE 04:32:54 10° ENE
[s.n.46673] 2.5 04:29:45 51° SW 04:30:20 76° SSE 04:33:05 10° ENE
[s.n.46700] 2.5 04:29:51 50° SW 04:30:25 77° SSE 04:33:11 10° ENE
[s.n.46705] 2.5 04:29:56 50° SW 04:30:31 77° SSE 04:33:17 10° ENE
[s.n.46692] 2.5 04:30:02 50° SW 04:30:37 77° SSE 04:33:23 10° ENE
[s.n.46686] 2.5 04:30:07 50° SW 04:30:42 77° SSE 04:33:28 10° ENE
[s.n.46716] 2.5 04:30:12 50° SW 04:30:47 77° SSE 04:33:33 10° ENE
[s.n.46722] 2.5 04:30:17 50° SW 04:30:53 77° SSE 04:33:39 10° ENE
[s.n.46689] 2.5 04:30:23 50° SW 04:30:59 77° SSE 04:33:45 10° ENE
Cosmos 2360 Rocket 4.3 04:26:36 10° N 04:31:02 23° NE 04:35:26 10° E
[s.n.46681] 2.5 04:30:28 49° SW 04:31:04 78° SSE 04:33:50 10° ENE
SAR-Lupe-4 3.6 04:33:58 10° S 04:37:28 55° WSW 04:41:01 10° NNW
ERS-2 3.0 04:36:18 10° SSW 04:39:17 27° W 04:39:17 27° W
Cosmos 1726 Rocket 3.7 04:35:20 10° NNW 04:39:40 51° W 04:43:59 10° S
ATLAS 3B R/B 2.6 04:33:08 10° SW 04:39:42 72° NW 04:46:24 10° NE
USA 234 4.1 04:35:57 10° ENE 04:41:51 38° N 04:46:42 15° WNW
Cosmos 1980 Rocket 2.3 04:37:33 10° NW 04:43:01 55° WSW 04:48:27 10° S
Cosmos 2228 3.6 04:40:47 10° NNW 04:44:43 33° W 04:48:40 10° SSW
Abrixas rocket 2.6 04:43:59 29° WSW 04:44:47 37° SSW 04:47:26 10° SE
ATLAS CENTAUR R/B 3.9 04:42:29 10° SSE 04:45:30 22° ESE 04:48:27 10° ENE
Cosmos 1092 Rocket 4.0 04:40:48 10° SSW 04:46:53 60° WNW 04:53:04 10° N
ADEOS Rocket 3.8 04:43:44 10° SW 04:47:47 21° W 04:51:55 10° NW
ADEOS 3.8 04:45:30 10° N 04:50:30 47° WNW 04:55:29 10° SW
Nadezhda 4 Rocket 4.5 04:45:47 10° SW 04:51:19 35° WNW 04:56:56 10° N
Cosmos 407 Rocket 4.3 04:47:40 10° S 04:52:39 55° ESE 04:57:42 10° NNE
Cosmos 2344 4.5 04:47:42 17° WNW 04:52:49 34° NNW 05:00:41 10° NE
Aureole 3 3.8 04:49:12 10° NNW 04:53:17 57° W 04:58:28 10° S
CZ-3 R/B 4.1 04:36:26 10° WSW 04:54:27 29° SSW 05:01:10 10° SE
Cosmos 1606 Rocket 4.4 04:51:32 10° NNW 04:55:23 29° W 04:59:13 10° SSW
Cosmos 1400 Rocket 3.3 04:52:32 10° NNW 04:56:10 36° W 04:59:44 10° SSW
CZ-4B R/B 4.2 04:52:13 10° N 04:56:16 45° WNW 05:00:06 10° SW
NOSS 8 (A) 4.0 04:55:41 10° SW 04:58:58 86° NW 05:01:56 10° NE
TELKOM 3 3.9 05:01:47 16° W 05:04:20 74° NNW 05:08:25 10° ENE
COSMO-SKYMED 1 2.9 05:01:30 10° S 05:05:40 45° W 05:09:52 10° NNW
S3M 4.2 05:01:47 10° N 05:08:06 79° E 05:14:29 10° SSE
CZ-4B R/B 3.1 05:06:23 10° SW 05:08:34 16° W 05:10:16 12° WNW
Cosmos 1300 4.0 05:06:40 10° NW 05:09:32 20° W 05:12:22 10° SW
ARGOS Delta rocket 4.4 05:04:29 10° N 05:09:40 49° WNW 05:14:55 10° SW
Cosmos 2292 Rocket 3.8 05:06:46 10° S 05:09:51 55° E 05:13:39 10° NNE
Cosmos 1655 Rocket 4.4 05:04:28 10° S 05:10:42 70° E 05:17:02 10° NNE
ALOS 3.1 05:08:08 10° N 05:12:08 29° WNW 05:16:07 10° SW
Cosmos 2278 4.4 05:08:21 10° NW 05:13:15 31° WSW 05:18:09 10° SSW
Meteor 2-10 Rocket 3.4 05:09:30 10° NNW 05:14:29 65° W 05:19:31 10° S
Cosmos 1689 Rocket 3.1 05:12:38 10° SSW 05:15:07 25° W 05:17:36 10° NW
Cosmos 2322 Rocket 2.6 05:09:26 10° NNW 05:15:08 70° ENE 05:20:46 10° SE
Cosmos 1626 3.9 05:14:34 11° W 05:16:14 14° WNW 05:18:12 10° NW
Cosmos 1833 Rocket 3.8 05:16:16 10° W 05:20:48 24° NW 05:25:22 10° N
MOS 1 Rocket 3.3 05:16:35 10° SSE 05:20:52 77° ENE 05:25:10 10° N
Cosmos 2084 3.8 05:20:57 10° WSW 05:25:10 49° NW 05:29:28 10° NNE
H-2A R/B 2.7 05:22:59 10° NNE 05:27:25 81° ESE 05:31:39 10° SSW
Cosmos 1315 Rocket 3.1 05:24:02 10° NNW 05:28:01 48° W 05:31:59 10° S
Cosmos 2058 Rocket 4.1 05:26:10 10° NNW 05:29:52 25° W 05:33:32 10° SW
Okean 1-7 Rocket 4.3 05:26:55 10° SW 05:30:59 32° WNW 05:35:04 10° N
Cosmos 1484 Rocket 4.5 05:29:12 10° NNW 05:31:21 14° WNW 05:33:28 10° W
Cosmos 192 4.4 05:26:32 10° NNW 05:31:32 83° WSW 05:36:29 10° SSE
SL-27 R/B 2.8 05:28:28 10° SSW 05:32:03 76° ESE 05:35:41 10° NNE
Cosmos 1758 Rocket 4.4 05:29:19 10° S 05:33:43 58° E 05:38:08 10° NNE
CZ-4B R/B 4.2 05:28:34 10° NNE 05:33:48 52° E 05:38:56 10° S
H-2A R/B 2.8 05:30:27 10° N 05:34:13 60° WNW 05:38:01 10° SSW
Cosmos 1553 Rocket 4.2 05:31:29 10° NNW 05:37:18 47° W 05:43:02 10° SSW
